{"data":{"norad_id":67874,"intl_designator":"2026-034AA","name":"STARLINK-36730","alt_names":[],"object_type":"PAYLOAD","status":"ACTIVE","operator":null,"country":"US","launch_date":"2026-02-20","launch_site_code":"AFETR","launch_vehicle":null,"mission":null,"orbit_class":"UNKNOWN","rcs_meters":null,"size_class":null,"mass_kg":null,"dimensions":null,"purposes":["comms"],"wikipedia_slug":null,"has_3d_model":false,"image_url":null,"decayed_at":null,"tle_current":{"epoch":"2026-05-25T04:28:05.849184Z","epoch_age_seconds":59793,"freshness":"FRESH","line1":"1 67874U 26034AA  26145.18617881  .00017250  00000+0  52031-3 0  9993","line2":"2 67874  53.1574 207.0764 0001076  80.9270 279.1854 15.34410706 15772","mean_motion":15.34410706,"eccentricity":0.0001076,"inclination_deg":53.1574,"raan_deg":207.0764,"arg_perigee_deg":80.927,"mean_anomaly_deg":279.1854,"bstar":0.00052031,"rev_number":1577,"period_min":93.847103280052,"perigee_km":461.93534891795,"apogee_km":463.40749088992,"semimajor_km":6840.8084199039,"source":"CELESTRAK","updated_at":"2026-05-25T13:38:21.729989Z"}}}